Time,TemperatureF,DewpointF,PressureIn,WindDirection,WindDirectionDegrees,WindSpeedMPH,WindSpeedGustMPH,Humidity,HourlyPrecipIn,Conditions,Clouds,dailyrainin,SoftwareType,DateUTC
2013-02-04 00:03:00,16.1,11.3,30.01,SW,217,0.0,0.0,81,0.00,,,0.00,Wunderground v.1.15,2013-02-04 06:03:00,
2013-02-04 00:09:00,16.1,11.6,30.01,SW,217,0.0,0.0,82,0.00,,,0.00,Wunderground v.1.15,2013-02-04 06:09:00,
2013-02-04 00:14:00,16.1,11.6,30.00,SW,217,0.0,0.0,82,0.00,,,0.01,Wunderground v.1.15,2013-02-04 06:14:00,
2013-02-04 00:19:00,16.1,11.6,30.00,SW,217,0.0,0.0,82,0.00,,,0.01,Wunderground v.1.15,2013-02-04 06:19:00,
2013-02-04 00:24:00,16.1,11.6,30.00,SW,217,0.0,0.0,82,0.00,,,0.01,Wunderground v.1.15,2013-02-04 06:24:00,
2013-02-04 00:29:00,16.1,11.6,29.99,SW,217,0.0,0.0,82,0.00,,,0.02,Wunderground v.1.15,2013-02-04 06:29:00,
2013-02-04 00:35:00,16.1,11.6,29.99,SW,217,0.0,0.0,82,0.00,,,0.02,Wunderground v.1.15,2013-02-04 06:35:00,
2013-02-04 00:40:00,16.1,11.6,29.99,SW,217,0.0,0.0,82,0.00,,,0.02,Wunderground v.1.15,2013-02-04 06:40:00,
2013-02-04 00:45:00,16.1,11.6,29.99,SW,217,0.0,0.0,82,0.00,,,0.02,Wunderground v.1.15,2013-02-04 06:45:00,
2013-02-04 00:51:00,16.1,11.6,29.99,SW,217,0.0,0.0,82,0.00,,,0.02,Wunderground v.1.15,2013-02-04 06:51:00,
2013-02-04 00:57:00,16.1,11.6,29.99,SW,217,0.0,0.0,82,0.00,,,0.03,Wunderground v.1.15,2013-02-04 06:57:00,
2013-02-04 01:03:00,15.9,11.4,29.98,SW,217,0.0,0.0,82,0.00,,,0.03,Wunderground v.1.15,2013-02-04 07:03:00,
2013-02-04 01:08:00,15.9,11.4,29.98,SW,217,0.0,0.0,82,0.00,,,0.03,Wunderground v.1.15,2013-02-04 07:08:00,
2013-02-04 01:14:00,15.9,11.4,29.98,South,191,0.0,0.0,82,0.00,,,0.03,Wunderground v.1.15,2013-02-04 07:14:00,
2013-02-04 01:19:00,15.9,11.7,29.98,South,191,0.0,0.0,83,0.00,,,0.03,Wunderground v.1.15,2013-02-04 07:19:00,
2013-02-04 01:25:00,15.9,11.7,29.98,South,191,0.0,0.0,83,0.00,,,0.03,Wunderground v.1.15,2013-02-04 07:25:00,
2013-02-04 01:30:00,15.9,11.7,29.98,South,191,0.0,0.0,83,0.00,,,0.03,Wunderground v.1.15,2013-02-04 07:30:00,
2013-02-04 01:35:00,15.9,11.7,29.98,South,191,0.0,0.0,83,0.00,,,0.04,Wunderground v.1.15,2013-02-04 07:35:00,
2013-02-04 01:41:00,15.9,11.7,29.98,South,191,0.0,0.0,83,0.00,,,0.04,Wunderground v.1.15,2013-02-04 07:41:00,
2013-02-04 01:46:00,15.9,11.7,29.97,South,191,0.0,0.0,83,0.00,,,0.04,Wunderground v.1.15,2013-02-04 07:46:00,
2013-02-04 01:52:00,15.9,11.7,29.97,SSE,158,0.0,0.0,83,0.00,,,0.04,Wunderground v.1.15,2013-02-04 07:52:00,
2013-02-04 01:57:00,15.9,11.7,29.97,SSE,155,0.0,0.0,83,0.00,,,0.04,Wunderground v.1.15,2013-02-04 07:57:00,
2013-02-04 02:03:00,15.9,11.7,29.97,SSE,155,0.0,0.0,83,0.00,,,0.05,Wunderground v.1.15,2013-02-04 08:03:00,
2013-02-04 02:08:00,15.9,11.7,29.97,SSE,155,0.0,0.0,83,0.00,,,0.05,Wunderground v.1.15,2013-02-04 08:08:00,
2013-02-04 02:13:00,15.9,11.7,29.97,SSE,152,0.0,0.0,83,0.00,,,0.05,Wunderground v.1.15,2013-02-04 08:13:00,
2013-02-04 02:18:00,15.9,11.7,29.96,ESE,114,0.0,0.0,83,0.00,,,0.05,Wunderground v.1.15,2013-02-04 08:18:00,
2013-02-04 02:23:00,15.9,11.7,29.96,ESE,114,0.0,0.0,83,0.00,,,0.05,Wunderground v.1.15,2013-02-04 08:23:00,
2013-02-04 02:29:00,15.9,11.9,29.97,ESE,114,0.0,0.0,84,0.00,,,0.06,Wunderground v.1.15,2013-02-04 08:29:00,
2013-02-04 02:35:00,15.9,11.9,29.97,ESE,114,0.0,0.0,84,0.00,,,0.06,Wunderground v.1.15,2013-02-04 08:35:00,
2013-02-04 02:41:00,15.9,11.9,29.97,ESE,114,0.0,0.0,84,0.00,,,0.06,Wunderground v.1.15,2013-02-04 08:41:00,
2013-02-04 02:46:00,15.9,11.9,29.96,ESE,114,0.0,0.0,84,0.00,,,0.06,Wunderground v.1.15,2013-02-04 08:46:00,
2013-02-04 02:52:00,15.9,11.9,29.96,ESE,114,0.0,0.0,84,0.00,,,0.06,Wunderground v.1.15,2013-02-04 08:52:00,
2013-02-04 02:57:00,15.9,11.9,29.96,ESE,114,0.0,0.0,84,0.00,,,0.06,Wunderground v.1.15,2013-02-04 08:57:00,
2013-02-04 03:02:00,15.7,11.7,29.95,ESE,114,0.0,0.0,84,0.00,,,0.06,Wunderground v.1.15,2013-02-04 09:02:00,
2013-02-04 03:07:00,15.7,11.7,29.95,ESE,114,0.0,0.0,84,0.00,,,0.06,Wunderground v.1.15,2013-02-04 09:07:00,
2013-02-04 03:13:00,15.7,11.7,29.95,ESE,114,0.0,0.0,84,0.00,,,0.06,Wunderground v.1.15,2013-02-04 09:13:00,
2013-02-04 03:19:00,15.7,11.7,29.95,ESE,114,0.0,0.0,84,0.00,,,0.06,Wunderground v.1.15,2013-02-04 09:19:00,
2013-02-04 03:24:00,15.7,11.7,29.95,ESE,114,0.0,0.0,84,0.00,,,0.06,Wunderground v.1.15,2013-02-04 09:24:00,
2013-02-04 03:30:00,15.7,11.7,29.94,ESE,114,0.0,0.0,84,0.00,,,0.06,Wunderground v.1.15,2013-02-04 09:30:00,
2013-02-04 03:35:00,15.6,11.6,29.94,NE,42,0.0,0.0,84,0.00,,,0.06,Wunderground v.1.15,2013-02-04 09:35:00,
2013-02-04 03:40:00,15.6,11.6,29.94,NE,42,0.0,0.0,84,0.00,,,0.06,Wunderground v.1.15,2013-02-04 09:40:00,
2013-02-04 03:46:00,15.4,11.4,29.95,NE,51,0.0,0.0,84,0.00,,,0.06,Wunderground v.1.15,2013-02-04 09:46:00,
2013-02-04 03:52:00,15.4,11.4,29.95,NE,48,0.0,0.0,84,0.00,,,0.07,Wunderground v.1.15,2013-02-04 09:52:00,
2013-02-04 03:57:00,15.4,11.4,29.95,NE,48,0.0,0.0,84,0.00,,,0.07,Wunderground v.1.15,2013-02-04 09:57:00,
2013-02-04 04:02:00,15.2,11.2,29.94,NE,48,0.0,0.0,84,0.00,,,0.07,Wunderground v.1.15,2013-02-04 10:02:00,
2013-02-04 04:07:00,15.2,11.2,29.94,NE,48,0.0,0.0,84,0.00,,,0.07,Wunderground v.1.15,2013-02-04 10:07:00,
2013-02-04 04:13:00,15.1,11.1,29.94,NE,48,0.0,0.0,84,0.00,,,0.07,Wunderground v.1.15,2013-02-04 10:13:00,
2013-02-04 04:18:00,15.1,11.1,29.94,NE,48,0.0,0.0,84,0.00,,,0.07,Wunderground v.1.15,2013-02-04 10:18:00,
2013-02-04 04:24:00,14.9,10.9,29.94,NE,48,0.0,0.0,84,0.00,,,0.08,Wunderground v.1.15,2013-02-04 10:24:00,
2013-02-04 04:30:00,14.9,10.9,29.94,NE,48,0.0,0.0,84,0.00,,,0.08,Wunderground v.1.15,2013-02-04 10:30:00,
2013-02-04 04:36:00,14.9,10.9,29.94,NE,48,0.0,0.0,84,0.00,,,0.08,Wunderground v.1.15,2013-02-04 10:36:00,
2013-02-04 04:41:00,14.9,10.9,29.94,NE,48,0.0,0.0,84,0.00,,,0.08,Wunderground v.1.15,2013-02-04 10:41:00,
2013-02-04 04:46:00,14.8,10.8,29.95,NE,55,0.0,0.0,84,0.00,,,0.08,Wunderground v.1.15,2013-02-04 10:46:00,
2013-02-04 04:52:00,14.8,10.8,29.95,NE,55,0.0,0.0,84,0.00,,,0.08,Wunderground v.1.15,2013-02-04 10:52:00,
2013-02-04 04:57:00,14.8,10.8,29.95,NE,55,0.0,0.0,84,0.00,,,0.08,Wunderground v.1.15,2013-02-04 10:57:00,
2013-02-04 05:02:00,14.8,10.8,29.95,NE,55,0.0,0.0,84,0.00,,,0.08,Wunderground v.1.15,2013-02-04 11:02:00,
2013-02-04 05:07:00,14.6,10.6,29.95,NE,56,0.0,0.0,84,0.00,,,0.08,Wunderground v.1.15,2013-02-04 11:07:00,
2013-02-04 05:13:00,14.6,10.6,29.95,ENE,58,0.0,0.0,84,0.00,,,0.08,Wunderground v.1.15,2013-02-04 11:13:00,
2013-02-04 05:18:00,14.6,10.6,29.95,ENE,61,0.0,0.0,84,0.00,,,0.08,Wunderground v.1.15,2013-02-04 11:18:00,
2013-02-04 05:23:00,14.6,10.6,29.95,ENE,61,0.0,0.0,84,0.00,,,0.08,Wunderground v.1.15,2013-02-04 11:23:00,
2013-02-04 05:28:00,14.6,10.6,29.95,ENE,61,0.0,0.0,84,0.00,,,0.08,Wunderground v.1.15,2013-02-04 11:28:00,
2013-02-04 05:34:00,14.6,10.6,29.95,ENE,61,0.0,0.0,84,0.00,,,0.08,Wunderground v.1.15,2013-02-04 11:34:00,
2013-02-04 05:39:00,14.6,10.6,29.95,NNE,32,0.0,0.0,84,0.00,,,0.08,Wunderground v.1.15,2013-02-04 11:39:00,
2013-02-04 05:44:00,14.6,10.4,29.94,NE,34,0.0,0.0,83,0.00,,,0.08,Wunderground v.1.15,2013-02-04 11:44:00,
2013-02-04 05:49:00,14.4,10.2,29.94,NE,34,0.0,0.0,83,0.00,,,0.08,Wunderground v.1.15,2013-02-04 11:49:00,
2013-02-04 05:55:00,14.6,10.4,29.94,ENE,65,0.0,0.0,83,0.00,,,0.08,Wunderground v.1.15,2013-02-04 11:55:00,
2013-02-04 06:00:00,14.4,10.2,29.94,NNE,30,0.0,0.0,83,0.00,,,0.08,Wunderground v.1.15,2013-02-04 12:00:00,
2013-02-04 06:06:00,14.4,10.2,29.94,NE,34,0.0,0.0,83,0.00,,,0.09,Wunderground v.1.15,2013-02-04 12:06:00,
2013-02-04 06:11:00,14.4,10.2,29.94,NE,34,0.0,0.0,83,0.00,,,0.09,Wunderground v.1.15,2013-02-04 12:11:00,
2013-02-04 06:16:00,14.4,10.2,29.95,NE,34,0.0,0.0,83,0.00,,,0.09,Wunderground v.1.15,2013-02-04 12:16:00,
2013-02-04 06:22:00,14.3,10.1,29.95,NE,51,0.0,0.0,83,0.00,,,0.09,Wunderground v.1.15,2013-02-04 12:22:00,
2013-02-04 06:27:00,14.3,10.1,29.95,North,7,0.0,0.0,83,0.00,,,0.09,Wunderground v.1.15,2013-02-04 12:27:00,
2013-02-04 06:33:00,14.3,10.1,29.95,North,7,0.0,0.0,83,0.00,,,0.09,Wunderground v.1.15,2013-02-04 12:33:00,
2013-02-04 06:38:00,14.1,9.9,29.95,North,7,0.0,0.0,83,0.00,,,0.09,Wunderground v.1.15,2013-02-04 12:38:00,
2013-02-04 06:44:00,14.1,9.9,29.96,North,7,0.0,0.0,83,0.00,,,0.09,Wunderground v.1.15,2013-02-04 12:44:00,
2013-02-04 06:49:00,14.1,9.9,29.96,North,10,0.0,0.0,83,0.00,,,0.09,Wunderground v.1.15,2013-02-04 12:49:00,
2013-02-04 06:55:00,14.0,9.8,29.96,NNE,16,0.0,0.0,83,0.00,,,0.09,Wunderground v.1.15,2013-02-04 12:55:00,
2013-02-04 07:01:00,14.0,9.8,29.96,NNE,18,0.0,0.0,83,0.00,,,0.09,Wunderground v.1.15,2013-02-04 13:01:00,
2013-02-04 07:07:00,14.0,9.8,29.96,NNE,18,0.0,0.0,83,0.00,,,0.09,Wunderground v.1.15,2013-02-04 13:07:00,
2013-02-04 07:13:00,13.8,9.6,29.96,NNE,31,0.0,0.0,83,0.00,,,0.09,Wunderground v.1.15,2013-02-04 13:13:00,
2013-02-04 07:18:00,13.8,9.6,29.96,NNE,31,0.0,0.0,83,0.00,,,0.09,Wunderground v.1.15,2013-02-04 13:18:00,
2013-02-04 07:24:00,13.8,9.6,29.96,NNE,32,0.0,0.0,83,0.00,,,0.09,Wunderground v.1.15,2013-02-04 13:24:00,
2013-02-04 07:30:00,13.8,9.6,29.96,North,7,0.0,0.0,83,0.00,,,0.09,Wunderground v.1.15,2013-02-04 13:30:00,
2013-02-04 07:35:00,13.8,9.6,29.96,North,1,0.0,0.0,83,0.00,,,0.09,Wunderground v.1.15,2013-02-04 13:35:00,
2013-02-04 07:40:00,13.8,9.6,29.96,North,4,0.0,0.0,83,0.00,,,0.09,Wunderground v.1.15,2013-02-04 13:40:00,
2013-02-04 07:45:00,13.8,9.6,29.96,North,4,0.0,0.0,83,0.00,,,0.09,Wunderground v.1.15,2013-02-04 13:45:00,
2013-02-04 07:51:00,13.8,9.6,29.96,NNE,13,0.0,3.0,83,0.00,,,0.09,Wunderground v.1.15,2013-02-04 13:51:00,
2013-02-04 07:57:00,13.8,9.6,29.96,North,0,0.0,3.0,83,0.00,,,0.09,Wunderground v.1.15,2013-02-04 13:57:00,
2013-02-04 08:02:00,13.8,9.6,29.97,North,0,0.0,0.0,83,0.00,,,0.09,Wunderground v.1.15,2013-02-04 14:02:00,
2013-02-04 08:08:00,14.0,9.8,29.97,North,0,0.0,0.0,83,0.00,,,0.09,Wunderground v.1.15,2013-02-04 14:08:00,
2013-02-04 08:13:00,14.0,9.8,29.98,North,359,0.0,0.0,83,0.00,,,0.09,Wunderground v.1.15,2013-02-04 14:13:00,
2013-02-04 08:18:00,14.0,9.8,29.98,NNE,16,0.0,1.0,83,0.00,,,0.09,Wunderground v.1.15,2013-02-04 14:18:00,
2013-02-04 08:24:00,14.1,9.9,29.98,North,0,0.0,1.0,83,0.00,,,0.09,Wunderground v.1.15,2013-02-04 14:24:00,
2013-02-04 08:29:00,14.1,9.9,29.98,NNW,343,0.0,1.0,83,0.00,,,0.09,Wunderground v.1.15,2013-02-04 14:29:00,
2013-02-04 08:35:00,14.1,9.6,29.98,North,0,0.0,0.0,82,0.00,,,0.09,Wunderground v.1.15,2013-02-04 14:35:00,
2013-02-04 08:40:00,14.1,9.6,29.98,North,8,0.0,1.0,82,0.00,,,0.09,Wunderground v.1.15,2013-02-04 14:40:00,
2013-02-04 08:46:00,14.3,9.8,29.98,North,353,0.0,1.0,82,0.00,,,0.09,Wunderground v.1.15,2013-02-04 14:46:00,
2013-02-04 08:51:00,14.3,9.8,29.98,North,0,0.0,0.0,82,0.00,,,0.09,Wunderground v.1.15,2013-02-04 14:51:00,
2013-02-04 08:56:00,14.4,9.9,29.98,North,0,0.0,0.0,82,0.00,,,0.09,Wunderground v.1.15,2013-02-04 14:56:00,
2013-02-04 09:01:00,14.6,10.1,29.98,North,0,0.0,0.0,82,0.00,,,0.09,Wunderground v.1.15,2013-02-04 15:01:00,
2013-02-04 09:08:00,14.8,10.3,29.98,North,0,0.0,0.0,82,0.00,,,0.09,Wunderground v.1.15,2013-02-04 15:08:00,
2013-02-04 09:13:00,15.1,10.6,29.98,North,10,0.0,1.0,82,0.00,,,0.09,Wunderground v.1.15,2013-02-04 15:13:00,
2013-02-04 09:18:00,15.1,10.3,29.97,NNW,343,0.0,1.0,81,0.00,,,0.09,Wunderground v.1.15,2013-02-04 15:18:00,
2013-02-04 09:24:00,15.2,10.4,29.97,ENE,78,0.0,0.0,81,0.00,,,0.09,Wunderground v.1.15,2013-02-04 15:24:00,
2013-02-04 09:30:00,15.4,10.6,29.97,North,354,0.0,0.0,81,0.00,,,0.09,Wunderground v.1.15,2013-02-04 15:30:00,
2013-02-04 09:35:00,15.6,10.8,29.97,North,353,0.0,0.0,81,0.00,,,0.09,Wunderground v.1.15,2013-02-04 15:35:00,
2013-02-04 09:40:00,15.7,10.6,29.97,North,352,1.0,1.0,80,0.00,,,0.09,Wunderground v.1.15,2013-02-04 15:40:00,
2013-02-04 09:47:00,15.9,10.8,29.98,North,0,1.0,3.0,80,0.00,,,0.09,Wunderground v.1.15,2013-02-04 15:47:00,
2013-02-04 09:52:00,16.1,11.0,29.98,North,4,1.0,1.0,80,0.00,,,0.09,Wunderground v.1.15,2013-02-04 15:52:00,
2013-02-04 09:58:00,16.2,10.8,29.98,North,357,0.0,2.0,79,0.00,,,0.09,Wunderground v.1.15,2013-02-04 15:58:00,
2013-02-04 10:03:00,16.2,10.5,29.98,North,353,2.0,6.0,78,0.00,,,0.09,Wunderground v.1.15,2013-02-04 16:03:00,
2013-02-04 10:09:00,16.4,10.7,29.98,NNE,24,2.0,6.0,78,0.00,,,0.09,Wunderground v.1.15,2013-02-04 16:09:00,
2013-02-04 10:14:00,16.4,10.7,29.98,NNW,344,2.0,2.0,78,0.00,,,0.09,Wunderground v.1.15,2013-02-04 16:14:00,
2013-02-04 10:19:00,16.5,10.8,29.98,NNW,347,1.0,3.0,78,0.00,,,0.09,Wunderground v.1.15,2013-02-04 16:19:00,
2013-02-04 10:24:00,16.7,11.0,29.98,WNW,292,1.0,2.0,78,0.00,,,0.09,Wunderground v.1.15,2013-02-04 16:24:00,
2013-02-04 10:30:00,16.9,10.9,29.98,North,0,1.0,1.0,77,0.00,,,0.09,Wunderground v.1.15,2013-02-04 16:30:00,
2013-02-04 10:36:00,17.2,11.2,29.98,North,0,0.0,1.0,77,0.00,,,0.09,Wunderground v.1.15,2013-02-04 16:36:00,
2013-02-04 10:42:00,17.3,11.0,29.98,NNW,336,1.0,5.0,76,0.00,,,0.09,Wunderground v.1.15,2013-02-04 16:42:00,
2013-02-04 10:49:00,17.5,11.2,29.99,North,354,2.0,5.0,76,0.00,,,0.09,Wunderground v.1.15,2013-02-04 16:49:00,
2013-02-04 10:54:00,17.7,11.4,29.99,NW,315,2.0,6.0,76,0.00,,,0.09,Wunderground v.1.15,2013-02-04 16:54:00,
2013-02-04 11:00:00,17.8,10.9,29.98,North,352,2.0,6.0,74,0.00,,,0.09,Wunderground v.1.15,2013-02-04 17:00:00,
2013-02-04 11:05:00,18.0,11.1,29.98,NNW,344,1.0,3.0,74,0.00,,,0.09,Wunderground v.1.15,2013-02-04 17:05:00,
2013-02-04 11:10:00,18.3,11.4,29.98,NW,316,0.0,3.0,74,0.00,,,0.09,Wunderground v.1.15,2013-02-04 17:10:00,
2013-02-04 11:18:00,18.6,11.4,29.99,North,352,1.0,1.0,73,0.00,,,0.09,Wunderground v.1.15,2013-02-04 17:18:00,
2013-02-04 11:23:00,18.8,11.3,29.99,North,349,0.0,0.0,72,0.00,,,0.09,Wunderground v.1.15,2013-02-04 17:23:00,
2013-02-04 11:28:00,19.1,11.2,29.99,NNW,347,1.0,5.0,71,0.00,,,0.09,Wunderground v.1.15,2013-02-04 17:28:00,
2013-02-04 11:33:00,19.2,11.3,29.99,NNE,20,1.0,1.0,71,0.00,,,0.09,Wunderground v.1.15,2013-02-04 17:33:00,
2013-02-04 11:39:00,19.5,11.6,29.99,North,0,0.0,1.0,71,0.00,,,0.09,Wunderground v.1.15,2013-02-04 17:39:00,
2013-02-04 11:45:00,19.9,11.7,29.98,NNW,328,1.0,6.0,70,0.00,,,0.09,Wunderground v.1.15,2013-02-04 17:45:00,
2013-02-04 11:51:00,19.9,11.7,29.98,NNW,343,2.0,2.0,70,0.00,,,0.09,Wunderground v.1.15,2013-02-04 17:51:00,
2013-02-04 11:57:00,19.9,11.7,29.98,NW,315,3.0,3.0,70,0.00,,,0.09,Wunderground v.1.15,2013-02-04 17:57:00,
2013-02-04 12:02:00,19.7,11.2,29.98,NNW,329,2.0,3.0,69,0.00,,,0.09,Wunderground v.1.15,2013-02-04 18:02:00,
2013-02-04 12:07:00,19.4,10.9,29.98,NNW,333,2.0,3.0,69,0.00,,,0.09,Wunderground v.1.15,2013-02-04 18:07:00,
2013-02-04 12:12:00,19.4,10.9,29.98,NNW,342,1.0,2.0,69,0.00,,,0.09,Wunderground v.1.15,2013-02-04 18:12:00,
2013-02-04 12:18:00,19.5,11.0,29.98,NNW,328,3.0,6.0,69,0.00,,,0.09,Wunderground v.1.15,2013-02-04 18:18:00,
2013-02-04 12:23:00,19.4,10.9,29.98,North,0,3.0,3.0,69,0.00,,,0.09,Wunderground v.1.15,2013-02-04 18:23:00,
2013-02-04 12:28:00,19.5,10.6,29.98,North,10,1.0,3.0,68,0.00,,,0.09,Wunderground v.1.15,2013-02-04 18:28:00,
2013-02-04 12:34:00,19.7,11.2,29.98,North,357,1.0,1.0,69,0.00,,,0.09,Wunderground v.1.15,2013-02-04 18:34:00,
2013-02-04 12:39:00,20.0,11.5,29.98,NNW,340,2.0,6.0,69,0.00,,,0.09,Wunderground v.1.15,2013-02-04 18:39:00,
2013-02-04 12:44:00,20.0,11.1,29.98,North,1,3.0,4.0,68,0.00,,,0.09,Wunderground v.1.15,2013-02-04 18:44:00,
2013-02-04 12:49:00,20.0,11.1,29.98,North,350,2.0,6.0,68,0.00,,,0.09,Wunderground v.1.15,2013-02-04 18:49:00,
2013-02-04 12:55:00,20.0,10.8,29.98,NNW,340,2.0,5.0,67,0.00,,,0.09,Wunderground v.1.15,2013-02-04 18:55:00,
2013-02-04 13:00:00,19.9,10.7,29.99,North,352,2.0,2.0,67,0.00,,,0.09,Wunderground v.1.15,2013-02-04 19:00:00,
2013-02-04 13:05:00,19.7,10.5,29.99,North,356,2.0,4.0,67,0.00,,,0.09,Wunderground v.1.15,2013-02-04 19:05:00,
2013-02-04 13:11:00,19.4,10.2,29.99,NNW,342,3.0,4.0,67,0.00,,,0.09,Wunderground v.1.15,2013-02-04 19:11:00,
2013-02-04 13:16:00,19.2,10.0,30.00,NW,315,3.0,4.0,67,0.00,,,0.09,Wunderground v.1.15,2013-02-04 19:16:00,
2013-02-04 13:22:00,19.5,10.3,30.00,WNW,295,2.0,5.0,67,0.00,,,0.09,Wunderground v.1.15,2013-02-04 19:22:00,
2013-02-04 13:28:00,19.5,10.3,30.00,NW,305,2.0,6.0,67,0.00,,,0.09,Wunderground v.1.15,2013-02-04 19:28:00,
2013-02-04 13:33:00,19.7,10.5,29.99,NNW,330,3.0,3.0,67,0.00,,,0.09,Wunderground v.1.15,2013-02-04 19:33:00,
2013-02-04 13:39:00,19.9,10.4,29.99,NNW,330,2.0,4.0,66,0.00,,,0.09,Wunderground v.1.15,2013-02-04 19:39:00,
2013-02-04 13:44:00,20.0,10.5,29.98,NNE,18,1.0,5.0,66,0.00,,,0.09,Wunderground v.1.15,2013-02-04 19:44:00,
2013-02-04 13:49:00,19.9,10.0,29.98,NNW,347,1.0,5.0,65,0.00,,,0.09,Wunderground v.1.15,2013-02-04 19:49:00,
2013-02-04 13:55:00,19.9,9.7,29.98,NNW,337,1.0,3.0,64,0.00,,,0.09,Wunderground v.1.15,2013-02-04 19:55:00,
2013-02-04 14:01:00,20.0,9.8,29.97,NNW,346,1.0,1.0,64,0.00,,,0.09,Wunderground v.1.15,2013-02-04 20:01:00,
2013-02-04 14:06:00,19.9,9.7,29.97,NNW,336,1.0,1.0,64,0.00,,,0.09,Wunderground v.1.15,2013-02-04 20:06:00,
2013-02-04 14:11:00,19.9,9.3,29.97,NNE,13,0.0,0.0,63,0.00,,,0.09,Wunderground v.1.15,2013-02-04 20:11:00,
2013-02-04 14:17:00,19.9,9.0,29.96,East,97,0.0,0.0,62,0.00,,,0.09,Wunderground v.1.15,2013-02-04 20:17:00,
2013-02-04 14:22:00,19.7,8.4,29.96,North,0,0.0,0.0,61,0.00,,,0.09,Wunderground v.1.15,2013-02-04 20:22:00,
2013-02-04 14:28:00,19.5,8.2,29.96,NNW,336,1.0,1.0,61,0.00,,,0.09,Wunderground v.1.15,2013-02-04 20:28:00,
2013-02-04 14:33:00,19.5,8.2,29.96,NNW,344,1.0,1.0,61,0.00,,,0.09,Wunderground v.1.15,2013-02-04 20:33:00,
2013-02-04 14:39:00,19.4,8.5,29.96,NNW,335,1.0,1.0,62,0.00,,,0.09,Wunderground v.1.15,2013-02-04 20:39:00,
2013-02-04 14:44:00,19.4,8.5,29.97,WNW,302,1.0,3.0,62,0.00,,,0.09,Wunderground v.1.15,2013-02-04 20:44:00,
2013-02-04 14:49:00,19.5,8.6,29.97,North,349,1.0,3.0,62,0.00,,,0.09,Wunderground v.1.15,2013-02-04 20:49:00,
2013-02-04 14:55:00,19.5,8.6,29.97,North,357,0.0,1.0,62,0.00,,,0.09,Wunderground v.1.15,2013-02-04 20:55:00,
2013-02-04 15:01:00,19.7,8.8,29.97,NNW,336,0.0,0.0,62,0.00,,,0.09,Wunderground v.1.15,2013-02-04 21:01:00,
2013-02-04 15:07:00,19.9,9.0,29.97,North,6,0.0,0.0,62,0.00,,,0.09,Wunderground v.1.15,2013-02-04 21:07:00,
2013-02-04 15:13:00,19.9,8.6,29.97,North,350,0.0,0.0,61,0.00,,,0.09,Wunderground v.1.15,2013-02-04 21:13:00,
2013-02-04 15:19:00,19.9,8.6,29.97,North,352,1.0,4.0,61,0.00,,,0.09,Wunderground v.1.15,2013-02-04 21:19:00,
2013-02-04 15:24:00,19.9,8.2,29.97,NW,315,1.0,5.0,60,0.00,,,0.09,Wunderground v.1.15,2013-02-04 21:24:00,
2013-02-04 15:29:00,19.7,8.0,29.97,NNW,347,1.0,5.0,60,0.00,,,0.09,Wunderground v.1.15,2013-02-04 21:29:00,
2013-02-04 15:34:00,19.9,8.2,29.97,NW,319,0.0,1.0,60,0.00,,,0.09,Wunderground v.1.15,2013-02-04 21:34:00,
2013-02-04 15:40:00,19.7,7.7,29.97,NNW,335,1.0,1.0,59,0.00,,,0.09,Wunderground v.1.15,2013-02-04 21:40:00,
2013-02-04 15:46:00,19.7,7.7,29.98,North,357,1.0,1.0,59,0.00,,,0.09,Wunderground v.1.15,2013-02-04 21:46:00,
2013-02-04 15:52:00,19.5,7.1,29.98,NNW,332,0.0,0.0,58,0.00,,,0.09,Wunderground v.1.15,2013-02-04 21:52:00,
2013-02-04 15:57:00,19.4,7.0,29.98,North,352,0.0,0.0,58,0.00,,,0.09,Wunderground v.1.15,2013-02-04 21:57:00,
2013-02-04 16:03:00,19.2,7.2,29.97,North,0,0.0,0.0,59,0.00,,,0.09,Wunderground v.1.15,2013-02-04 22:03:00,
2013-02-04 16:09:00,18.9,6.5,29.97,NW,322,0.0,0.0,58,0.00,,,0.09,Wunderground v.1.15,2013-02-04 22:09:00,
2013-02-04 16:14:00,18.4,6.1,29.98,North,0,0.0,0.0,58,0.00,,,0.09,Wunderground v.1.15,2013-02-04 22:14:00,
2013-02-04 16:19:00,18.1,5.8,29.98,North,1,0.0,0.0,58,0.00,,,0.09,Wunderground v.1.15,2013-02-04 22:19:00,
2013-02-04 16:25:00,17.7,5.4,29.98,NNW,337,0.0,0.0,58,0.00,,,0.09,Wunderground v.1.15,2013-02-04 22:25:00,
2013-02-04 16:30:00,17.5,5.2,29.99,NW,315,0.0,0.0,58,0.00,,,0.09,Wunderground v.1.15,2013-02-04 22:30:00,
2013-02-04 16:36:00,17.0,4.7,29.99,NW,316,0.0,0.0,58,0.00,,,0.09,Wunderground v.1.15,2013-02-04 22:36:00,
2013-02-04 16:42:00,16.5,4.3,29.99,NW,316,0.0,0.0,58,0.00,,,0.09,Wunderground v.1.15,2013-02-04 22:42:00,
2013-02-04 16:47:00,16.2,4.0,29.99,NW,316,0.0,0.0,58,0.00,,,0.09,Wunderground v.1.15,2013-02-04 22:47:00,
2013-02-04 16:53:00,15.9,4.1,29.99,NW,316,0.0,0.0,59,0.00,,,0.09,Wunderground v.1.15,2013-02-04 22:53:00,
2013-02-04 16:59:00,15.6,3.8,29.98,NW,316,0.0,0.0,59,0.00,,,0.09,Wunderground v.1.15,2013-02-04 22:59:00,
2013-02-04 17:05:00,15.1,3.3,29.98,NW,316,0.0,0.0,59,0.00,,,0.09,Wunderground v.1.15,2013-02-04 23:05:00,
2013-02-04 17:11:00,14.8,2.7,29.98,NW,316,0.0,0.0,58,0.00,,,0.09,Wunderground v.1.15,2013-02-04 23:11:00,
2013-02-04 17:16:00,14.3,2.6,29.99,NW,316,0.0,0.0,59,0.00,,,0.09,Wunderground v.1.15,2013-02-04 23:16:00,
2013-02-04 17:22:00,13.8,2.1,29.99,NW,316,0.0,0.0,59,0.00,,,0.09,Wunderground v.1.15,2013-02-04 23:22:00,
2013-02-04 17:27:00,13.5,1.8,29.99,NW,316,0.0,0.0,59,0.00,,,0.09,Wunderground v.1.15,2013-02-04 23:27:00,
2013-02-04 17:33:00,12.9,1.2,30.00,NW,316,0.0,0.0,59,0.00,,,0.09,Wunderground v.1.15,2013-02-04 23:33:00,
2013-02-04 17:38:00,12.4,0.8,30.00,NW,316,0.0,0.0,59,0.00,,,0.09,Wunderground v.1.15,2013-02-04 23:38:00,
2013-02-04 17:44:00,11.7,0.1,30.00,NW,316,0.0,0.0,59,0.00,,,0.09,Wunderground v.1.15,2013-02-04 23:44:00,
2013-02-04 17:50:00,11.2,-0.4,30.00,NW,316,0.0,0.0,59,0.00,,,0.09,Wunderground v.1.15,2013-02-04 23:50:00,
2013-02-04 17:56:00,10.7,-0.5,30.00,NW,316,0.0,0.0,60,0.00,,,0.09,Wunderground v.1.15,2013-02-04 23:56:00,
2013-02-04 18:01:00,10.4,-0.8,30.00,NW,316,0.0,0.0,60,0.00,,,0.09,Wunderground v.1.15,2013-02-05 00:01:00,
2013-02-04 18:07:00,10.2,-0.2,30.00,NW,316,0.0,0.0,62,0.00,,,0.09,Wunderground v.1.15,2013-02-05 00:07:00,
2013-02-04 18:12:00,10.0,-0.1,30.00,NW,316,0.0,0.0,63,0.00,,,0.09,Wunderground v.1.15,2013-02-05 00:12:00,
2013-02-04 18:17:00,9.9,-0.2,29.99,NW,316,0.0,0.0,63,0.00,,,0.09,Wunderground v.1.15,2013-02-05 00:17:00,
2013-02-04 18:22:00,9.5,-0.6,29.99,NW,316,0.0,0.0,63,0.00,,,0.09,Wunderground v.1.15,2013-02-05 00:22:00,
2013-02-04 18:27:00,9.3,-0.4,29.99,NW,316,0.0,0.0,64,0.00,,,0.09,Wunderground v.1.15,2013-02-05 00:27:00,
2013-02-04 18:33:00,9.2,-0.5,30.00,NW,316,0.0,0.0,64,0.00,,,0.09,Wunderground v.1.15,2013-02-05 00:33:00,
2013-02-04 18:39:00,9.0,-0.7,30.00,NW,316,0.0,0.0,64,0.00,,,0.09,Wunderground v.1.15,2013-02-05 00:39:00,
2013-02-04 18:45:00,8.8,-0.9,30.00,NW,316,0.0,0.0,64,0.00,,,0.09,Wunderground v.1.15,2013-02-05 00:45:00,
2013-02-04 18:51:00,8.6,-0.8,30.00,NW,316,0.0,0.0,65,0.00,,,0.09,Wunderground v.1.15,2013-02-05 00:51:00,
2013-02-04 18:57:00,8.6,-0.4,30.00,NW,316,0.0,0.0,66,0.00,,,0.09,Wunderground v.1.15,2013-02-05 00:57:00,
2013-02-04 19:03:00,8.4,-0.3,30.01,NW,316,0.0,0.0,67,0.00,,,0.09,Wunderground v.1.15,2013-02-05 01:03:00,
2013-02-04 19:09:00,8.4,-0.3,30.01,NW,316,0.0,0.0,67,0.00,,,0.09,Wunderground v.1.15,2013-02-05 01:09:00,
2013-02-04 19:14:00,8.4,0.0,30.02,NW,316,0.0,0.0,68,0.00,,,0.09,Wunderground v.1.15,2013-02-05 01:14:00,
2013-02-04 19:19:00,8.4,0.3,30.02,NW,316,0.0,0.0,69,0.00,,,0.09,Wunderground v.1.15,2013-02-05 01:19:00,
2013-02-04 19:25:00,8.4,0.3,30.02,NW,316,0.0,0.0,69,0.00,,,0.09,Wunderground v.1.15,2013-02-05 01:25:00,
2013-02-04 19:30:00,8.6,0.8,30.02,NW,316,0.0,0.0,70,0.00,,,0.09,Wunderground v.1.15,2013-02-05 01:30:00,
2013-02-04 19:36:00,8.6,0.8,30.02,NW,316,0.0,0.0,70,0.00,,,0.09,Wunderground v.1.15,2013-02-05 01:36:00,
2013-02-04 19:41:00,8.8,1.3,30.02,NW,316,0.0,0.0,71,0.00,,,0.09,Wunderground v.1.15,2013-02-05 01:41:00,
2013-02-04 19:46:00,8.8,1.3,30.02,NW,316,0.0,0.0,71,0.00,,,0.09,Wunderground v.1.15,2013-02-05 01:46:00,
2013-02-04 19:52:00,8.8,1.3,30.02,NW,316,0.0,0.0,71,0.00,,,0.09,Wunderground v.1.15,2013-02-05 01:52:00,
2013-02-04 19:57:00,8.8,1.6,30.02,NW,316,0.0,0.0,72,0.00,,,0.09,Wunderground v.1.15,2013-02-05 01:57:00,
2013-02-04 20:03:00,8.8,1.6,30.01,NW,316,0.0,0.0,72,0.00,,,0.09,Wunderground v.1.15,2013-02-05 02:03:00,
2013-02-04 20:08:00,8.8,1.6,30.01,NW,316,0.0,0.0,72,0.00,,,0.09,Wunderground v.1.15,2013-02-05 02:08:00,
2013-02-04 20:14:00,8.6,1.4,30.00,NW,316,0.0,0.0,72,0.00,,,0.09,Wunderground v.1.15,2013-02-05 02:14:00,
2013-02-04 20:19:00,8.6,1.4,30.00,NW,316,0.0,0.0,72,0.00,,,0.09,Wunderground v.1.15,2013-02-05 02:19:00,
2013-02-04 20:24:00,8.6,1.4,30.00,NW,316,0.0,0.0,72,0.00,,,0.09,Wunderground v.1.15,2013-02-05 02:24:00,
2013-02-04 20:30:00,8.4,1.2,30.01,NW,316,0.0,0.0,72,0.00,,,0.09,Wunderground v.1.15,2013-02-05 02:30:00,
2013-02-04 20:36:00,8.4,1.2,30.01,NW,316,0.0,0.0,72,0.00,,,0.09,Wunderground v.1.15,2013-02-05 02:36:00,
2013-02-04 20:41:00,8.3,1.1,30.01,NW,316,0.0,0.0,72,0.00,,,0.09,Wunderground v.1.15,2013-02-05 02:41:00,
2013-02-04 20:46:00,8.3,1.1,30.01,NW,316,0.0,0.0,72,0.00,,,0.09,Wunderground v.1.15,2013-02-05 02:46:00,
2013-02-04 20:53:00,8.1,0.9,30.01,NW,316,0.0,0.0,72,0.00,,,0.09,Wunderground v.1.15,2013-02-05 02:53:00,
2013-02-04 20:59:00,8.1,1.2,30.01,NW,316,0.0,0.0,73,0.00,,,0.09,Wunderground v.1.15,2013-02-05 02:59:00,
2013-02-04 21:05:00,7.9,1.0,30.01,NW,316,0.0,0.0,73,0.00,,,0.09,Wunderground v.1.15,2013-02-05 03:05:00,
2013-02-04 21:10:00,7.9,1.0,30.01,NW,316,0.0,0.0,73,0.00,,,0.09,Wunderground v.1.15,2013-02-05 03:10:00,
2013-02-04 21:16:00,7.9,1.0,30.00,NW,316,0.0,0.0,73,0.00,,,0.09,Wunderground v.1.15,2013-02-05 03:16:00,
2013-02-04 21:22:00,7.7,0.8,30.00,NW,316,0.0,0.0,73,0.00,,,0.09,Wunderground v.1.15,2013-02-05 03:22:00,
2013-02-04 21:27:00,7.4,0.6,30.00,NW,316,0.0,0.0,73,0.00,,,0.09,Wunderground v.1.15,2013-02-05 03:27:00,
2013-02-04 21:32:00,7.4,0.6,30.00,NW,316,0.0,0.0,73,0.00,,,0.09,Wunderground v.1.15,2013-02-05 03:32:00,
2013-02-04 21:37:00,7.0,-0.1,30.00,NW,316,0.0,0.0,72,0.00,,,0.09,Wunderground v.1.15,2013-02-05 03:37:00,
2013-02-04 21:43:00,6.9,-0.2,30.00,NW,316,0.0,0.0,72,0.00,,,0.09,Wunderground v.1.15,2013-02-05 03:43:00,
2013-02-04 21:49:00,6.5,-0.6,30.00,NW,316,0.0,0.0,72,0.00,,,0.09,Wunderground v.1.15,2013-02-05 03:49:00,
2013-02-04 21:55:00,6.3,-0.8,30.00,NW,316,0.0,0.0,72,0.00,,,0.09,Wunderground v.1.15,2013-02-05 03:55:00,
2013-02-04 22:02:00,6.1,-1.0,30.00,NW,316,0.0,0.0,72,0.00,,,0.09,Wunderground v.1.15,2013-02-05 04:02:00,
2013-02-04 22:07:00,6.0,-1.1,30.00,NW,316,0.0,0.0,72,0.00,,,0.09,Wunderground v.1.15,2013-02-05 04:07:00,
2013-02-04 22:13:00,5.8,-1.3,30.00,NW,316,0.0,0.0,72,0.00,,,0.09,Wunderground v.1.15,2013-02-05 04:13:00,
2013-02-04 22:18:00,5.6,-1.5,30.00,NW,316,0.0,0.0,72,0.00,,,0.09,Wunderground v.1.15,2013-02-05 04:18:00,
2013-02-04 22:24:00,5.4,-1.4,30.00,NW,316,0.0,0.0,73,0.00,,,0.09,Wunderground v.1.15,2013-02-05 04:24:00,
2013-02-04 22:29:00,5.4,-1.4,30.00,NW,316,0.0,0.0,73,0.00,,,0.09,Wunderground v.1.15,2013-02-05 04:29:00,
2013-02-04 22:34:00,5.4,-1.4,30.00,NW,316,0.0,0.0,73,0.00,,,0.09,Wunderground v.1.15,2013-02-05 04:34:00,
2013-02-04 22:40:00,5.2,-1.6,30.00,NW,316,0.0,0.0,73,0.00,,,0.09,Wunderground v.1.15,2013-02-05 04:40:00,
2013-02-04 22:46:00,5.2,-1.3,29.99,NW,316,0.0,0.0,74,0.00,,,0.09,Wunderground v.1.15,2013-02-05 04:46:00,
2013-02-04 22:52:00,5.2,-1.3,29.99,NW,316,0.0,0.0,74,0.00,,,0.09,Wunderground v.1.15,2013-02-05 04:52:00,
2013-02-04 22:57:00,5.4,-1.1,29.99,NW,316,0.0,0.0,74,0.00,,,0.09,Wunderground v.1.15,2013-02-05 04:57:00,
2013-02-04 23:00:00,5.4,-1.1,29.99,NW,316,0.0,0.0,74,0.00,,,0.09,Wunderground v.1.15,2013-02-05 05:00:00,
2013-02-04 23:01:00,5.4,-0.8,29.99,NW,316,0.0,0.0,75,0.00,,,0.09,Wunderground v.1.15,2013-02-05 05:01:00,
2013-02-04 23:06:00,5.4,-0.8,29.99,NW,316,0.0,0.0,75,0.00,,,0.09,Wunderground v.1.15,2013-02-05 05:06:00,
2013-02-04 23:08:00,5.6,-0.6,29.99,NW,316,0.0,0.0,75,0.00,,,0.09,Wunderground v.1.15,2013-02-05 05:08:00,
2013-02-04 23:14:00,5.6,-0.6,29.97,NW,316,0.0,0.0,75,0.00,,,0.09,Wunderground v.1.15,2013-02-05 05:14:00,
2013-02-04 23:19:00,5.8,-0.1,29.97,NW,316,0.0,0.0,76,0.00,,,0.09,Wunderground v.1.15,2013-02-05 05:19:00,
2013-02-04 23:25:00,5.8,-0.1,29.97,NW,316,0.0,0.0,76,0.00,,,0.09,Wunderground v.1.15,2013-02-05 05:25:00,
2013-02-04 23:30:00,6.0,0.1,29.97,NW,316,0.0,0.0,76,0.00,,,0.09,Wunderground v.1.15,2013-02-05 05:30:00,
2013-02-04 23:36:00,6.1,0.4,29.97,NW,316,0.0,0.0,77,0.00,,,0.09,Wunderground v.1.15,2013-02-05 05:36:00,
2013-02-04 23:41:00,6.1,0.4,29.97,NW,316,0.0,0.0,77,0.00,,,0.09,Wunderground v.1.15,2013-02-05 05:41:00,
2013-02-04 23:46:00,6.3,0.6,29.97,NW,316,0.0,0.0,77,0.00,,,0.09,Wunderground v.1.15,2013-02-05 05:46:00,
2013-02-04 23:52:00,6.5,0.8,29.97,NW,316,0.0,0.0,77,0.00,,,0.09,Wunderground v.1.15,2013-02-05 05:52:00,
2013-02-04 23:57:00,6.5,0.8,29.97,NW,316,0.0,0.0,77,0.00,,,0.09,Wunderground v.1.15,2013-02-05 05:57:00,